User: anonymous   Login
Location: Nelson
(41.2830°S, 173.2830°E)
Time: 00:44:57
(UTC+13:00)
Language:

NOAA 11 - Orbit

View from above orbital plane
View from above orbital plane
View from above satellite
View from above satellite

Ground track
Ground track

The orbit data is extracted from the following two-line orbital elements,

1 19531U 88089A   19288.92388045 -.00000020 +00000-0 +10737-4 0  9994
2 19531 098.4379 316.8821 0012303 109.7342 250.5161 14.15246121602831
Epoch (UTC): 15 October 2019 22:10:23
Eccentricity: 0.0012303
inclination: 98.4379°
perigee height: 832 km
apogee height: 850 km
right ascension of ascending node: 316.8821°
argument of perigee: 109.7342°
revolutions per day: 14.15246121
mean anomaly at epoch: 250.5161°
orbit number at epoch: 60283

The dashed part of the orbit path shows where the satellite is in the earth's shadow,  

DLR